SWA1448 KCOS-KPHX

Flight info

Callsign SWA1448
Flight time N/A
Altitude 38000
Route DRAKE V83 PUB ALS J102 GUP EAGUL6
Aircraft B737/M-SDE2E3GIJ4RWZ/LB1D1

Departure

Time 2026-04-21 22:09
Airport City of Colorado Springs Municipal Airport (KCOS)

Arrival

Time N/A
Airport Phoenix Sky Harbor International Airport (KPHX)
Time Latitude Longitude Altitude Speed Heading
2026-04-21 21:39 38.80000 -104.70124 6145 ft 0 kts 171°
2026-04-21 21:56 38.80020 -104.70128 6146 ft 4 kts 172°
2026-04-21 21:57 38.80043 -104.70132 6146 ft 4 kts 170°
2026-04-21 21:57 38.80066 -104.70143 6147 ft 4 kts 128°
2026-04-21 21:57 38.80075 -104.70173 6147 ft 4 kts 91°
2026-04-21 21:57 38.80075 -104.70199 6147 ft 0 kts 90°
2026-04-21 22:00 38.80075 -104.70192 6147 ft 2 kts 90°
2026-04-21 22:00 38.80075 -104.70152 6147 ft 7 kts 90°
2026-04-21 22:00 38.80096 -104.70087 6147 ft 10 kts 18°
2026-04-21 22:01 38.80173 -104.70085 6148 ft 12 kts 358°
2026-04-21 22:01 38.80259 -104.70078 6150 ft 13 kts 26°
2026-04-21 22:01 38.80280 -104.69966 6150 ft 15 kts 91°
2026-04-21 22:01 38.80279 -104.69824 6150 ft 17 kts 90°
2026-04-21 22:02 38.80279 -104.69678 6150 ft 16 kts 90°
2026-04-21 22:02 38.80279 -104.69537 6150 ft 15 kts 90°
2026-04-21 22:02 38.80278 -104.69402 6150 ft 15 kts 90°
2026-04-21 22:02 38.80278 -104.69273 6150 ft 14 kts 90°
2026-04-21 22:03 38.80278 -104.69141 6150 ft 15 kts 90°
2026-04-21 22:03 38.80278 -104.69008 6150 ft 15 kts 90°
2026-04-21 22:03 38.80278 -104.68881 6150 ft 14 kts 90°
2026-04-21 22:03 38.80323 -104.68790 6151 ft 13 kts
2026-04-21 22:04 38.80413 -104.68789 6153 ft 13 kts
2026-04-21 22:04 38.80501 -104.68787 6156 ft 13 kts 359°
2026-04-21 22:04 38.80588 -104.68787 6155 ft 12 kts 360°
2026-04-21 22:04 38.80672 -104.68787 6157 ft 12 kts 360°
2026-04-21 22:05 38.80754 -104.68787 6158 ft 12 kts 360°
2026-04-21 22:05 38.80834 -104.68787 6159 ft 11 kts 360°
2026-04-21 22:05 38.80911 -104.68787 6161 ft 11 kts 360°
2026-04-21 22:05 38.80987 -104.68787 6162 ft 11 kts
2026-04-21 22:06 38.81060 -104.68786 6163 ft 10 kts
2026-04-21 22:06 38.81131 -104.68785 6164 ft 10 kts
2026-04-21 22:06 38.81200 -104.68785 6165 ft 10 kts 359°
2026-04-21 22:06 38.81271 -104.68786 6166 ft 12 kts 360°
2026-04-21 22:07 38.81367 -104.68786 6168 ft 15 kts 360°
2026-04-21 22:07 38.81466 -104.68786 6172 ft 14 kts 360°
2026-04-21 22:07 38.81560 -104.68784 6173 ft 13 kts
2026-04-21 22:07 38.81599 -104.68697 6172 ft 13 kts 90°
2026-04-21 22:08 38.81585 -104.68589 6175 ft 13 kts 137°
2026-04-21 22:08 38.81501 -104.68575 6172 ft 13 kts 180°
2026-04-21 22:08 38.81254 -104.68575 6166 ft 65 kts 180°
2026-04-21 22:08 38.80608 -104.68574 6156 ft 119 kts 180°
2026-04-21 22:09 38.79634 -104.68575 6149 ft 160 kts 179°
2026-04-21 22:09 38.78457 -104.68572 6427 ft 174 kts 178°
2026-04-21 22:09 38.77249 -104.68542 7047 ft 177 kts 177°
2026-04-21 22:09 38.76044 -104.68369 7600 ft 183 kts 162°
2026-04-21 22:10 38.74786 -104.67692 7842 ft 209 kts 156°
2026-04-21 22:10 38.73345 -104.66871 7987 ft 243 kts 156°
2026-04-21 22:10 38.71711 -104.65949 8289 ft 266 kts 156°
2026-04-21 22:10 38.69980 -104.64980 8952 ft 275 kts 156°
2026-04-21 22:11 38.68233 -104.64009 9923 ft 275 kts 157°
2026-04-21 22:11 38.66435 -104.63017 10242 ft 292 kts 157°
2026-04-21 22:11 38.64469 -104.61937 10401 ft 321 kts 157°
2026-04-21 22:11 38.62349 -104.60776 10755 ft 339 kts 157°
2026-04-21 22:12 38.60163 -104.59582 11459 ft 346 kts 157°
2026-04-21 22:12 38.57910 -104.58354 12031 ft 357 kts 158°
2026-04-21 22:12 38.55612 -104.57103 12825 ft 359 kts 158°
2026-04-21 22:12 38.53285 -104.55838 13500 ft 367 kts 159°
2026-04-21 22:13 38.50905 -104.54546 14134 ft 374 kts 158°
2026-04-21 22:13 38.48493 -104.53236 14844 ft 378 kts 159°
2026-04-21 22:13 38.46095 -104.51935 15623 ft 381 kts 160°
2026-04-21 22:13 38.43639 -104.50603 16374 ft 386 kts 159°
2026-04-21 22:14 38.41155 -104.49257 17123 ft 390 kts 159°
2026-04-21 22:14 38.38642 -104.47895 17817 ft 395 kts 159°
2026-04-21 22:14 38.36097 -104.46520 18463 ft 400 kts 159°
2026-04-21 22:14 38.33482 -104.45284 19097 ft 402 kts 170°
2026-04-21 22:15 38.30712 -104.45155 19720 ft 400 kts 191°
2026-04-21 22:15 38.28064 -104.46216 20395 ft 400 kts 208°
2026-04-21 22:15 38.25783 -104.48211 21052 ft 399 kts 225°
2026-04-21 22:15 38.23906 -104.50834 21685 ft 402 kts 230°
2026-04-21 22:16 38.22090 -104.53567 22256 ft 407 kts 231°
2026-04-21 22:16 38.20272 -104.56355 22819 ft 411 kts 231°
2026-04-21 22:16 38.18443 -104.59161 23418 ft 415 kts 231°
2026-04-21 22:16 38.16585 -104.61989 23894 ft 418 kts 231°
2026-04-21 22:17 38.14707 -104.64824 24404 ft 421 kts 231°
2026-04-21 22:17 38.12808 -104.67672 24900 ft 424 kts 230°
2026-04-21 22:17 38.10885 -104.70541 25349 ft 427 kts 230°
2026-04-21 22:17 38.08950 -104.73421 25840 ft 430 kts 230°
2026-04-21 22:18 38.06997 -104.76321 26250 ft 434 kts 230°
2026-04-21 22:18 38.05030 -104.79237 26715 ft 436 kts 230°
2026-04-21 22:18 38.03073 -104.82137 27122 ft 439 kts 230°
2026-04-21 22:18 38.01051 -104.85130 27541 ft 443 kts 230°
2026-04-21 22:19 37.99042 -104.88101 27949 ft 445 kts 230°
2026-04-21 22:19 37.97046 -104.91051 28322 ft 449 kts 230°
2026-04-21 22:19 37.95007 -104.94062 28787 ft 451 kts 230°
2026-04-21 22:19 37.92957 -104.97086 29246 ft 451 kts 230°
2026-04-21 22:20 37.90905 -105.00111 29613 ft 455 kts 230°
2026-04-21 22:20 37.88828 -105.03169 29875 ft 460 kts 230°
2026-04-21 22:20 37.86739 -105.06244 30249 ft 460 kts 230°
2026-04-21 22:20 37.84658 -105.09301 30932 ft 454 kts 230°
2026-04-21 22:21 37.82601 -105.12321 31392 ft 453 kts 230°
2026-04-21 22:21 37.80543 -105.15340 31769 ft 454 kts 230°
2026-04-21 22:21 37.78483 -105.18359 32170 ft 453 kts 230°
2026-04-21 22:21 37.76422 -105.21377 32585 ft 452 kts 229°
2026-04-21 22:22 37.74367 -105.24383 33067 ft 451 kts 229°
2026-04-21 22:22 37.72320 -105.27376 33446 ft 450 kts 229°
2026-04-21 22:22 37.70301 -105.30324 33906 ft 448 kts 229°
2026-04-21 22:22 37.68270 -105.33287 34290 ft 445 kts 229°
2026-04-21 22:23 37.66246 -105.36237 34609 ft 445 kts 229°
2026-04-21 22:23 37.64223 -105.39184 34977 ft 443 kts 229°
2026-04-21 22:23 37.62199 -105.42129 35189 ft 445 kts 228°
2026-04-21 22:23 37.60163 -105.45088 35355 ft 447 kts 228°
2026-04-21 22:24 37.58125 -105.48047 35633 ft 447 kts 228°
2026-04-21 22:24 37.56091 -105.50999 35979 ft 445 kts 228°
2026-04-21 22:24 37.54061 -105.53942 36311 ft 444 kts 228°
2026-04-21 22:24 37.52035 -105.56877 36599 ft 444 kts 227°
2026-04-21 22:25 37.50008 -105.59811 36883 ft 444 kts 227°
2026-04-21 22:25 37.47983 -105.62739 37163 ft 443 kts 227°
2026-04-21 22:25 37.45962 -105.65660 37469 ft 442 kts 227°
2026-04-21 22:25 37.43952 -105.68561 37866 ft 438 kts 227°
2026-04-21 22:26 37.41955 -105.71442 38166 ft 437 kts 227°
2026-04-21 22:26 37.37922 -105.77252 38161 ft 441 kts 227°
2026-04-21 22:27 37.33960 -105.83089 38157 ft 438 kts 230°
2026-04-21 22:27 37.30338 -105.89209 38140 ft 435 kts 232°
2026-04-21 22:28 37.26786 -105.95348 38018 ft 433 kts 232°
2026-04-21 22:28 37.23229 -106.01447 38021 ft 432 kts 232°
2026-04-21 22:29 37.19683 -106.07475 38044 ft 433 kts 231°
2026-04-21 22:29 37.16098 -106.13543 38045 ft 434 kts 231°
2026-04-21 22:30 37.12491 -106.19639 38050 ft 436 kts 231°
2026-04-21 22:30 37.08867 -106.25750 38078 ft 438 kts 231°
2026-04-21 22:31 37.05226 -106.31881 38078 ft 440 kts 231°
2026-04-21 22:31 37.01566 -106.38033 38092 ft 440 kts 231°
2026-04-21 22:32 36.97901 -106.44183 38067 ft 440 kts 231°
2026-04-21 22:32 36.94244 -106.50309 38073 ft 438 kts 231°
2026-04-21 22:33 36.90599 -106.56403 38060 ft 437 kts 231°
2026-04-21 22:33 36.86966 -106.62465 38054 ft 435 kts 231°
2026-04-21 22:34 36.83369 -106.68455 38036 ft 433 kts 231°
2026-04-21 22:34 36.79751 -106.74470 38029 ft 432 kts 231°
2026-04-21 22:35 36.76141 -106.80463 38002 ft 431 kts 231°
2026-04-21 22:35 36.72539 -106.86431 37997 ft 430 kts 231°
2026-04-21 22:36 36.67740 -106.94366 37989 ft 430 kts 231°
2026-04-21 22:36 36.64129 -107.00324 37990 ft 431 kts 231°
2026-04-21 22:37 36.60511 -107.06284 37994 ft 432 kts 231°
2026-04-21 22:37 36.56881 -107.12252 37978 ft 433 kts 231°
2026-04-21 22:38 36.53262 -107.18194 37985 ft 433 kts 231°
2026-04-21 22:38 36.49652 -107.24113 37983 ft 433 kts 231°
2026-04-21 22:39 36.45976 -107.30126 37977 ft 433 kts 231°
2026-04-21 22:39 36.42332 -107.36079 37973 ft 433 kts 231°
2026-04-21 22:40 36.38685 -107.42029 37996 ft 433 kts 231°
2026-04-21 22:40 36.35039 -107.47970 37987 ft 433 kts 231°
2026-04-21 22:41 36.31392 -107.53903 37988 ft 432 kts 231°
2026-04-21 22:41 36.27741 -107.59831 37984 ft 432 kts 231°
2026-04-21 22:42 36.24093 -107.65748 37992 ft 432 kts 231°
2026-04-21 22:42 36.20440 -107.71655 37988 ft 432 kts 231°
2026-04-21 22:43 36.16783 -107.77550 37983 ft 431 kts 231°
2026-04-21 22:43 36.13155 -107.83389 37972 ft 431 kts 231°
2026-04-21 22:44 36.09494 -107.89273 37955 ft 431 kts 231°
2026-04-21 22:44 36.05841 -107.95136 37960 ft 430 kts 231°
2026-04-21 22:45 36.02181 -108.01000 37953 ft 430 kts 231°
2026-04-21 22:45 35.98521 -108.06855 37939 ft 430 kts 231°
2026-04-21 22:46 35.94859 -108.12703 37939 ft 430 kts 231°
2026-04-21 22:46 35.91189 -108.18553 37925 ft 431 kts 231°
2026-04-21 22:47 35.87516 -108.24397 37928 ft 431 kts 231°
2026-04-21 22:47 35.83868 -108.30194 37930 ft 431 kts 231°
2026-04-21 22:48 35.80185 -108.36035 37925 ft 431 kts 231°
2026-04-21 22:48 35.76503 -108.41865 37924 ft 432 kts 231°
2026-04-21 22:49 35.72815 -108.47694 37924 ft 431 kts 232°
2026-04-21 22:49 35.69131 -108.53509 37915 ft 431 kts 232°
2026-04-21 22:50 35.65446 -108.59314 37901 ft 430 kts 232°
2026-04-21 22:50 35.61763 -108.65107 37906 ft 429 kts 232°
2026-04-21 22:51 35.58086 -108.70880 37906 ft 429 kts 232°
2026-04-21 22:51 35.54407 -108.76649 38157 ft 429 kts 232°
2026-04-21 22:52 35.50751 -108.82373 38158 ft 428 kts 232°
2026-04-21 22:52 35.47059 -108.88097 38145 ft 428 kts 230°
2026-04-21 22:53 35.43031 -108.93461 38110 ft 428 kts 227°
2026-04-21 22:53 35.38882 -108.98692 38053 ft 428 kts 227°
2026-04-21 22:54 35.34755 -109.03946 37997 ft 428 kts 227°
2026-04-21 22:54 35.30642 -109.09235 37935 ft 429 kts 227°
2026-04-21 22:55 35.26535 -109.14529 37905 ft 429 kts 229°
2026-04-21 22:55 35.22418 -109.19831 37905 ft 430 kts 229°
2026-04-21 22:56 35.18291 -109.25136 37900 ft 430 kts 228°
2026-04-21 22:56 35.14159 -109.30438 37897 ft 431 kts 229°
2026-04-21 22:57 35.10014 -109.35747 37920 ft 432 kts 229°
2026-04-21 22:57 35.05864 -109.41056 37893 ft 432 kts 229°
2026-04-21 22:58 35.01733 -109.46331 37915 ft 433 kts 229°
2026-04-21 22:58 34.97565 -109.51646 37914 ft 434 kts 229°
2026-04-21 22:59 34.93385 -109.56968 37900 ft 434 kts 229°
2026-04-21 22:59 34.89203 -109.62285 37899 ft 435 kts 229°
2026-04-21 23:00 34.85014 -109.67602 37915 ft 435 kts 229°
2026-04-21 23:00 34.80829 -109.72918 37927 ft 435 kts 229°
2026-04-21 23:01 34.76653 -109.78242 37928 ft 435 kts 229°
2026-04-21 23:01 34.72476 -109.83554 37917 ft 434 kts 229°